+ View the NASA Portal
+ Center for Near-Earth Object Studies
IMPORTANT:
The SSD Announcement email list is now available. Major changes are coming in the near future, including possible hostname and/or URL changes. To be notified of such changes, subscribe to this email list.
Please visit
this page
for more details.
Don't show this message again
JPL Small-Body Database Browser
Search:
[
help
]
312712 (2010 PB76)
Classification:
Main-belt Asteroid
SPK-ID:
2312712
[
Ephemeris
|
Orbit Diagram
|
Orbital Elements
|
Mission Design
|
Physical Parameters
|
Discovery Circumstances
]
[ show orbit diagram ]
Orbital Elements at Epoch 2458600.5 (2019-Apr-27.0) TDB
Reference:
JPL 14
(heliocentric ecliptic J2000)
Element
Value
Uncertainty (1-sigma)
Units
e
.09555390144652394
7.6202e-08
a
2.917360092637458
4.0447e-08
au
q
2.638594953861556
2.2931e-07
au
i
3.020299929648417
5.9303e-06
deg
node
67.32895794129621
0.00013463
deg
peri
300.5737438712571
0.00013821
deg
M
248.6357312374388
3.5185e-05
deg
t
p
2459163.523928310518
(2020-Nov-10.02392831)
0.00018423
TDB
period
1820.050689902495
4.98
3.785e-05
1.036e-07
d
yr
n
.1977966888489716
4.1135e-09
deg/d
Q
3.196125231413359
4.4312e-08
au
Orbit Determination Parameters
# obs. used (total)
181
data-arc span
5949 days (16.29 yr)
first obs. used
2003-03-24
last obs. used
2019-07-07
planetary ephem.
DE431
SB-pert. ephem.
SB431-N16
condition code
0
norm. resid. RMS
.58893
source
ORB
producer
Otto Matic
solution date
2019-Sep-24 06:02:15
Additional Information
Earth MOID
= 1.63831 au
Jupiter MOID
= 2.26032 au
T_jup
= 3.272
[ show covariance matrix ]
[
Ephemeris
|
Orbit Diagram
|
Orbital Elements
|
Mission Design
|
Physical Parameters
|
Discovery Circumstances
]
Physical Parameter Table
Parameter
Symbol
Value
Units
Sigma
Reference
Notes
absolute magnitude
H
16.2
n/a
MPO437380
312712 (2010 PB76)
Discovered 2010-Aug-10 by Spacewatch at Kitt Peak
Reference:
20120109/Numbers.arc
Last Updated:
2012-01-11
Alternate Designations
2010 PB76
= 2003 FN17
[
Ephemeris
|
Orbit Diagram
|
Orbital Elements
|
Mission Design
|
Physical Parameters
|
Discovery Circumstances
]
2019-Dec-14 17:34 UT
(server date/time)
Site Manager:
Ryan S. Park
Webmaster
:
Alan B. Chamberlin